Regional Weather Roundup
Issued by NWS Little Rock, AR

Home | Current Version | Previous Version | Text Only | Print | Product List | Glossary Off
Versions: 1 2 3 4 5 6 7 8 9 10 11 12 13 14 15 16 17 18 19 20 21 22 23 24 25 26 27 28 29 30 31 32

000
ASUS44 KLZK 301705
RWRLZK

WEATHER ROUNDUP FOR ARKANSAS
NATIONAL WEATHER SERVICE LITTLE ROCK AR
1200 PM CDT SUN APR 30 2017

NOTE: "FAIR" INDICATES FEW OR NO CLOUDS BELOW 12,000 FEET WITH NO
SIGNIFICANT WEATHER AND/OR OBSTRUCTIONS TO VISIBILITY.

ARZ001-003-010-029-301800-
NORTHWEST ARKANSAS

CITY           SKY/WX    TMP DP  RH WIND       PRES   REMARKS
FAYETTEVILLE   CLOUDY    56  51  84 SW16G28   29.62S
FORT SMITH     CLOUDY    60  46  59 SW22G29   29.64F
HARRISON       PTSUNNY   64  54  69 S13G24    29.59R
BENTONVILLE    CLOUDY    55  46  71 S17G23    29.61S
ROGERS         LGT RAIN  56  49  77 S20G32    29.61S
SILOAM SPGS    CLOUDY    55  45  67 S22G30    29.60F
HIGHFILL       PTSUNNY   55  48  77 S17G25    29.59S
SPRINGDALE     PTSUNNY   55  48  76 S15G33    29.63S
$$

ARZ004-005-016-301800-
NORTH CENTRAL ARKANSAS

CITY           SKY/WX    TMP DP  RH WIND       PRES   REMARKS
BATESVILLE     CLOUDY    70  64  83 E10       29.66R
FLIPPIN        PTSUNNY  N/A N/A N/A S8        29.57R
$$

ARZ040-041-301800-
WEST CENTRAL ARKANSAS

CITY           SKY/WX    TMP DP  RH WIND       PRES   REMARKS
MENA           CLOUDY    59  50  72 SW7G20    29.72
$$

ARZ009-017-025-026-028-301800-
NORTHEAST ARKANSAS

CITY           SKY/WX    TMP DP  RH WIND       PRES   REMARKS
JONESBORO      CLOUDY    70  64  81 SW12      29.68F
NEWPORT        LGT RAIN  68  65  90 S13         N/A
WALNUT RIDGE   CLOUDY    70  64  83 S15       29.67S
BLYTHEVILLE    LGT RAIN  72  71  97 SE25G38   29.67F
$$

ARZ022-023-033-042-044-301800-
CENTRAL ARKANSAS

CITY           SKY/WX    TMP DP  RH WIND       PRES   REMARKS
LITTLE ROCK    CLOUDY    64  59  83 SW12      29.69F
N LITTLE ROCK    N/A     63  58  83 SW10G20   29.67F
JACKSONVILLE   CLOUDY    67  60  79 S13       29.67F
CONWAY           N/A     63  57  82 S8        29.64F
SEARCY         CLOUDY    67  65  93 S10       29.70R
CLINTON        FAIR      66  59  77 S9G16     29.64F
$$

ARZ036-301800-
EAST ARKANSAS

CITY           SKY/WX    TMP DP  RH WIND       PRES   REMARKS
WEST MEMPHIS   LGT RAIN  70  70 100 SW8G20    29.70R
$$

ARZ050-053-066-070-073-301800-
SOUTHWEST ARKANSAS

CITY           SKY/WX    TMP DP  RH WIND       PRES   REMARKS
ARKADELPHIA    LGT RAIN  57  55  93 SW7       29.77R
CAMDEN         CLOUDY    59  54  82 SW7       29.78R
TEXARKANA      CLOUDY    56  51  84 SW20      29.81R
EL DORADO      CLOUDY    60  56  86 SW9       29.80R
DE QUEEN       CLOUDY    57  46  66 SW17      29.77R
$$

ARZ056-057-069-301800-
SOUTHEAST ARKANSAS

CITY           SKY/WX    TMP DP  RH WIND       PRES   REMARKS
PINE BLUFF     CLOUDY    65  60  84 SW10      29.73R
STUTTGART      CLOUDY    66  55  68 SE12      29.70F
MONTICELLO     CLOUDY    68  63  84 VRB7      29.74S

$$






USA.gov is the U.S. government's official web portal to all federal, state and local government web resources and services.